Wind_Speed
7 7 7 7 8 8 8 7 7 7 7 7 7 7 7 7 7 6 5 5 5 5 5 4 5 5 4 4 4 5 5 5 6 6 6 6 6 6 6 6 6 7 7
5 6 6 6 7 7 7 6 6 6 6 6 6 6 6 7 7 6 7 7 6 6 5 5 6 6 6 5 5 5 6 6 6 6 7 7 7 7 7 7 8 8 9
6 6 5 5 5 5 5 5 6 6 5 5 5 5 6 7 7 7 7 8 7 7 7 6 6 6 7 7 7 7 7 7 7 7 7 8 8 8 9 9 9 9 10
5 5 5 5 5 5 5 5 5 6 5 5 5 5 6 7 7 7 8 8 8 8 8 8 7 7 8 8 8 8 8 7 8 8 8 8 9 9 9 10 10 11 11
5 5 5 4 5 5 4 5 5 6 6 5 5 5 6 6 6 7 7 8 9 9 9 9 9 9 8 9 9 8 8 8 8 8 8 9 9 9 10 10 10 11 12
5 5 5 4 4 4 4 4 5 5 5 5 5 5 6 6 7 6 6 7 8 8 9 10 10 10 9 9 9 9 9 8 9 9 9 9 9 9 10 10 10 11 11
3 3 3 3 3 3 3 4 4 5 6 6 6 6 6 7 7 8 8 9 9 9 9 10 10 10 10 9 9 9 9 9 9 10 10 9 9 10 10 10 10 10 10
2 1 1 1 2 2 3 3 4 5 6 6 7 7 7 7 9 10 10 10 10 9 9 10 10 10 10 10 11 10 10 11 11 11 11 10 10 10 10 11 11 11 11
1 1 1 2 2 3 4 3 4 5 5 6 7 8 8 8 9 10 11 11 11 12 12 11 11 11 11 11 12 12 12 12 12 12 12 12 11 11 12 12 12 12 12
1 2 2 3 3 4 5 5 4 5 6 7 7 8 8 9 9 9 11 11 12 13 14 14 13 12 12 13 13 13 13 12 12 13 14 13 13 13 13 14 14 14 14
3 3 4 4 5 5 6 7 6 6 6 7 8 8 8 9 9 10 11 11 12 13 14 14 14 14 14 14 14 14 14 14 14 14 14 15 15 14 15 15 15 15 16
4 4 4 5 6 6 6 7 7 7 7 8 9 10 10 10 10 11 12 13 13 13 13 13 14 14 14 14 15 16 15 15 15 15 14 15 15 15 15 16 16 16 16
5 5 6 7 7 7 8 8 9 9 9 10 10 11 11 11 12 12 12 13 14 14 14 14 13 13 14 15 15 16 17 17 17 17 17 16 16 17 17 17 17 17 17
6 6 7 8 9 9 8 9 10 10 10 11 12 12 12 12 12 12 12 13 14 14 14 14 15 15 16 16 16 17 18 18 18 18 18 18 18 18 18 18 18 18 18
7 8 8 8 9 10 10 10 10 11 12 12 12 13 13 13 11 11 12 12 14 14 15 16 16 16 16 16 16 17 17 18 19 19 18 18 19 19 19 19 19 19 19
10 10 10 10 11 12 12 12 12 13 13 14 13 13 14 14 14 13 13 14 14 15 16 17 17 17 17 18 18 18 18 18 19 20 20 20 20 20 20 21 21 20 20
13 13 13 13 14 14 15 15 16 16 16 15 16 16 16 16 16 16 16 16 16 16 17 17 17 18 19 19 19 19 19 19 19 20 20 21 22 22 22 22 23 22 22
15 15 16 16 17 17 17 18 19 18 18 17 17 17 17 18 18 18 18 18 18 18 18 18 18 19 19 19 20 20 20 20 20 21 22 23 22 22 23 24 24 24 24
18 18 18 19 20 20 19 19 20 20 20 20 19 19 19 19 19 19 19 19 19 19 19 19 20 20 20 21 21 21 22 22 22 23 23 23 23 23 24 25 24 24 24
21 21 21 21 22 22 21 21 22 22 21 22 22 22 22 21 21 21 22 22 22 22 22 22 22 22 22 22 23 24 24 24 24 24 24 24 24 25 25 25 25 26 26
23 23 23 23 23 23 23 23 24 24 24 24 25 25 25 25 25 24 24 24 25 24 24 24 24 24 24 25 25 25 26 26 26 26 26 26 26 26 26 26 27 27 27
25 26 26 26 25 25 25 26 26 26 26 26 26 26 26 27 27 27 26 26 26 26 26 26 26 26 26 27 27 26 26 26 26 27 27 27 28 27 28 27 28 28 28
28 27 27 28 28 27 27 27 27 28 29 28 28 28 28 28 29 29 29 29 29 29 29 29 28 28 28 28 29 28 28 28 28 28 28 28 28 28 29 29 30 30 29
30 30 29 31 30 29 29 29 29 30 30 29 29 29 29 30 31 31 32 32 31 31 32 32 31 30 30 30 30 30 29 29 29 29 29 29 29 30 31 31 31 31 32
32 32 33 32 30 29 30 30 30 30 31 30 30 30 31 32 33 33 33 33 32 31 32 32 32 32 31 31 31 31 31 30 30 30 30 30 30 31 32 33 33 33 33
34 35 35 33 32 31 31 31 31 32 32 32 31 31 31 32 33 34 34 34 32 32 32 32 33 33 32 32 32 32 32 31 31 31 32 32 32 32 33 34 34 33 33
Wind_Direction
154 167 176 179 185 189 184 183 182 182 183 191 198 204 204 207 210 208 211 218 224 228 233 236 232 226 228 230 235 242 242 243 245 246 249 249 250 256 255 261 267 270 270
145 157 167 179 186 191 195 188 181 179 187 196 201 211 213 219 222 224 226 231 234 238 242 248 247 238 238 241 244 246 246 247 248 251 254 252 252 256 258 265 267 270 269
129 137 142 153 162 165 170 173 172 175 185 200 211 219 220 228 228 235 237 239 242 246 247 252 253 249 247 246 249 251 249 249 254 257 262 262 258 257 259 264 268 270 270
122 128 141 146 157 165 173 175 181 186 192 203 213 218 221 229 234 241 243 241 241 245 248 252 254 255 253 252 254 256 254 253 257 255 261 263 259 260 261 263 268 268 267
121 122 134 140 158 167 179 195 200 200 204 212 216 228 233 237 238 240 244 245 244 247 248 252 254 254 256 258 258 256 255 258 257 255 260 263 261 264 264 265 268 269 269
120 122 132 143 157 176 191 203 209 213 219 225 228 235 236 238 245 246 245 248 250 254 255 254 255 257 254 258 260 254 253 254 255 257 261 262 261 265 268 267 269 272 272
125 131 134 149 162 181 197 209 217 220 224 234 239 243 243 242 247 248 250 251 252 257 260 256 256 257 255 258 262 260 257 257 258 259 260 261 265 266 268 269 271 275 273
115 127 152 159 188 205 202 212 223 233 236 240 243 249 253 253 251 251 252 256 257 257 259 260 260 263 261 259 260 261 262 260 261 260 259 263 265 266 270 272 273 274 274
155 192 236 230 229 229 237 236 239 247 248 246 247 251 251 258 261 258 255 258 261 260 259 259 262 262 262 260 259 261 262 265 263 262 262 264 266 270 269 271 274 275 274
264 263 252 241 246 255 257 253 257 260 262 258 259 255 254 255 266 263 254 257 263 264 263 265 263 264 264 265 262 265 264 265 266 267 266 266 269 271 271 272 273 274 275
265 263 264 261 262 267 266 259 262 265 267 268 265 259 260 262 268 263 259 261 264 264 265 266 263 266 267 267 265 264 265 265 268 271 268 267 268 270 272 273 274 275 274
261 266 272 275 270 270 271 268 265 269 267 269 269 263 265 269 272 267 261 263 266 267 266 268 265 263 266 264 263 261 263 266 268 270 269 269 268 268 270 272 273 276 275
277 272 269 277 276 275 273 272 266 270 274 274 271 270 271 273 276 271 266 266 266 266 265 266 265 262 263 265 265 264 263 265 267 269 271 270 269 270 272 273 273 274 274
285 278 275 276 275 275 276 275 271 272 274 275 274 272 273 272 274 273 273 272 269 268 267 268 266 262 262 266 268 268 265 265 266 268 269 270 272 273 273 274 272 272 272
286 282 284 283 279 275 277 278 274 272 270 273 274 275 272 271 273 276 277 275 272 269 270 271 271 267 266 267 269 271 272 269 267 267 268 270 270 274 274 275 276 276 275
285 282 284 284 281 278 278 276 270 271 269 271 275 277 274 274 273 275 275 274 273 271 270 271 271 269 269 269 271 273 271 272 272 269 269 269 269 272 274 274 275 277 277
279 278 278 279 281 279 277 274 268 269 271 272 274 275 274 274 274 273 273 273 272 272 272 273 273 272 272 272 271 273 271 271 273 271 270 270 271 271 272 272 275 276 276
277 281 281 278 278 277 277 274 269 270 271 272 272 273 275 276 274 275 275 276 276 273 272 273 275 276 275 273 272 272 271 270 271 273 272 272 273 273 274 274 275 273 273
278 279 283 281 279 278 276 275 271 270 271 273 274 275 276 278 277 276 277 278 278 275 274 275 276 276 276 275 273 272 272 272 272 274 275 275 275 274 274 275 276 276 274
278 278 281 283 281 279 276 274 271 270 271 274 274 275 277 277 276 276 275 276 276 276 275 276 276 276 275 274 275 275 274 273 273 274 275 276 277 276 275 275 275 274 273
278 278 280 280 281 279 276 274 272 270 271 273 273 274 274 273 274 275 274 274 275 276 276 278 276 275 274 274 275 275 275 273 273 273 274 275 277 278 277 275 274 273 273
277 278 277 277 279 280 278 276 274 272 270 272 272 272 273 272 273 274 274 275 276 277 276 277 277 276 275 275 275 274 273 272 272 271 272 273 275 277 277 277 276 275 273
277 278 278 279 279 279 280 279 278 275 273 273 273 273 272 272 272 273 274 275 277 276 275 275 275 275 274 274 274 273 272 272 271 272 271 273 274 276 276 277 277 276 275
278 277 280 280 279 280 280 280 278 276 273 275 276 274 273 273 273 274 275 276 275 275 274 274 273 274 274 273 273 273 272 272 272 272 272 273 273 275 275 275 276 275 274
277 279 279 279 278 277 280 280 280 277 275 274 274 274 273 273 273 275 275 275 273 273 273 273 272 272 272 272 272 272 272 272 272 273 273 273 274 274 275 275 275 275 273
277 278 279 279 279 279 279 279 278 278 276 274 274 274 273 274 275 276 275 273 273 272 272 271 271 270 270 270 271 272 271 271 272 272 274 275 274 274 274 275 276 275 274
Height
5885 5886 5887 5888 5889 5889 5890 5891 5892 5892 5893 5894 5895 5895 5896 5896 5897 5898 5898 5899 5899 5899 5899 5899 5899 5899 5899 5899 5899 5899 5899 5899 5899 5899 5899 5899 5899 5899 5899 5899 5899 5899 5899
5886 5887 5887 5888 5889 5889 5890 5891 5892 5892 5893 5894 5895 5895 5896 5896 5897 5897 5898 5898 5898 5898 5899 5899 5898 5898 5898 5898 5898 5898 5898 5898 5898 5898 5898 5897 5898 5898 5898 5898 5898 5897 5897
5886 5887 5887 5887 5888 5889 5890 5891 5891 5892 5893 5894 5894 5894 5895 5895 5896 5896 5896 5897 5897 5897 5897 5897 5897 5897 5897 5897 5897 5897 5896 5896 5896 5896 5896 5896 5896 5896 5896 5896 5895 5895 5895
5886 5887 5887 5888 5888 5889 5890 5890 5891 5892 5892 5893 5893 5893 5894 5894 5894 5895 5895 5895 5895 5895 5896 5896 5896 5895 5895 5895 5895 5895 5895 5895 5895 5894 5894 5894 5894 5894 5893 5893 5893 5893 5892
5886 5887 5887 5888 5888 5889 5890 5890 5891 5891 5892 5892 5892 5892 5892 5893 5893 5893 5893 5893 5893 5893 5893 5894 5894 5893 5893 5893 5893 5893 5893 5893 5892 5892 5892 5892 5892 5891 5891 5891 5891 5890 5890
5886 5887 5888 5888 5888 5889 5889 5890 5890 5890 5891 5891 5891 5891 5891 5891 5891 5891 5892 5892 5892 5892 5891 5891 5891 5891 5891 5891 5891 5890 5890 5890 5890 5890 5890 5890 5890 5889 5889 5888 5888 5888 5887
5887 5887 5887 5888 5888 5888 5889 5889 5889 5889 5889 5890 5890 5890 5890 5890 5890 5890 5890 5890 5890 5890 5889 5889 5888 5889 5889 5889 5889 5889 5888 5888 5888 5888 5888 5887 5887 5887 5886 5886 5885 5885 5884
5887 5887 5887 5887 5888 5888 5888 5888 5888 5888 5888 5888 5888 5888 5888 5889 5888 5888 5888 5888 5888 5888 5887 5887 5887 5887 5886 5886 5887 5886 5886 5885 5885 5885 5885 5885 5884 5884 5884 5883 5883 5882 5882
5886 5887 5887 5887 5887 5887 5887 5887 5887 5887 5887 5886 5886 5887 5886 5886 5886 5886 5886 5885 5885 5885 5885 5884 5884 5884 5884 5883 5884 5883 5883 5883 5882 5882 5882 5882 5881 5881 5881 5880 5880 5879 5879
5886 5886 5886 5886 5886 5886 5886 5886 5886 5885 5885 5885 5885 5884 5884 5884 5884 5883 5883 5883 5883 5882 5882 5881 5880 5880 5880 5880 5880 5880 5880 5879 5879 5879 5879 5879 5878 5878 5877 5877 5876 5876 5875
5884 5884 5884 5884 5884 5884 5884 5883 5883 5883 5883 5883 5882 5882 5881 5881 5881 5880 5880 5880 5879 5879 5878 5877 5877 5877 5877 5877 5877 5876 5876 5876 5876 5876 5875 5874 5874 5874 5874 5873 5873 5872 5871
5882 5882 5882 5882 5882 5882 5881 5881 5881 5881 5881 5880 5879 5879 5878 5878 5877 5877 5877 5876 5876 5875 5875 5874 5874 5873 5873 5873 5873 5873 5872 5872 5872 5872 5871 5870 5870 5870 5870 5869 5868 5868 5867
5880 5880 5880 5879 5879 5878 5878 5878 5878 5878 5877 5877 5876 5876 5875 5875 5874 5874 5873 5873 5872 5872 5871 5871 5870 5870 5869 5869 5869 5868 5868 5868 5868 5868 5867 5867 5866 5866 5865 5865 5864 5863 5862
5878 5877 5876 5876 5876 5875 5875 5875 5874 5874 5874 5873 5873 5872 5872 5871 5870 5870 5869 5869 5868 5868 5867 5867 5867 5866 5866 5865 5865 5864 5864 5863 5863 5863 5862 5862 5862 5861 5861 5860 5859 5858 5858
5875 5874 5874 5873 5872 5871 5871 5871 5870 5870 5870 5869 5869 5869 5868 5867 5866 5866 5865 5865 5865 5864 5863 5863 5862 5862 5861 5861 5860 5859 5859 5858 5858 5858 5857 5857 5857 5856 5856 5855 5854 5853 5853
5872 5871 5870 5869 5868 5868 5867 5866 5866 5866 5865 5865 5865 5864 5864 5863 5862 5862 5861 5860 5860 5860 5859 5858 5858 5857 5857 5856 5855 5854 5854 5853 5853 5852 5852 5852 5851 5851 5850 5850 5849 5848 5847
5867 5867 5866 5865 5864 5863 5863 5862 5861 5861 5861 5860 5860 5860 5859 5859 5858 5857 5857 5856 5855 5855 5854 5854 5853 5852 5851 5850 5850 5849 5848 5848 5847 5847 5846 5846 5845 5845 5844 5844 5843 5842 5841
5862 5862 5861 5860 5859 5858 5857 5857 5856 5856 5856 5855 5855 5855 5854 5853 5853 5852 5852 5851 5850 5849 5849 5848 5847 5846 5846 5845 5844 5844 5843 5842 5842 5841 5840 5839 5838 5838 5838 5837 5836 5835 5835
5857 5856 5855 5854 5853 5851 5851 5850 5850 5850 5850 5850 5849 5849 5849 5848 5847 5847 5846 5845 5844 5844 5843 5842 5841 5841 5840 5839 5838 5838 5837 5836 5835 5834 5833 5833 5832 5831 5831 5830 5829 5828 5828
5850 5849 5848 5847 5846 5845 5844 5844 5844 5844 5843 5843 5843 5843 5842 5842 5841 5840 5839 5838 5838 5837 5836 5836 5835 5834 5834 5833 5832 5831 5830 5830 5829 5828 5827 5826 5825 5824 5823 5823 5822 5821 5820
5843 5842 5841 5840 5840 5838 5838 5837 5837 5836 5836 5836 5836 5835 5835 5834 5833 5833 5832 5831 5830 5830 5829 5829 5828 5827 5827 5826 5825 5824 5823 5822 5822 5821 5820 5819 5818 5817 5816 5815 5814 5813 5812
5835 5835 5834 5833 5832 5831 5831 5830 5829 5828 5828 5828 5828 5827 5826 5825 5825 5824 5824 5823 5822 5822 5821 5821 5821 5820 5819 5818 5817 5816 5815 5814 5814 5814 5812 5811 5810 5809 5808 5807 5805 5804 5804
5828 5827 5827 5826 5824 5824 5823 5822 5821 5820 5819 5819 5819 5818 5818 5817 5817 5816 5815 5814 5813 5812 5812 5812 5812 5811 5811 5810 5808 5807 5807 5806 5805 5805 5804 5803 5802 5801 5800 5798 5797 5796 5795
5819 5818 5818 5817 5816 5815 5814 5813 5812 5811 5811 5810 5809 5809 5808 5808 5807 5806 5805 5805 5804 5803 5803 5802 5802 5802 5801 5800 5799 5798 5798 5797 5796 5796 5795 5794 5793 5792 5791 5789 5788 5786 5785
5811 5810 5809 5808 5806 5806 5805 5804 5803 5802 5801 5800 5800 5799 5799 5798 5797 5796 5796 5795 5794 5793 5792 5792 5792 5792 5791 5791 5790 5789 5788 5787 5787 5786 5786 5785 5784 5782 5781 5780 5778 5777 5776
5801 5800 5800 5799 5798 5796 5795 5794 5794 5792 5791 5790 5789 5789 5789 5788 5787 5786 5785 5785 5784 5783 5782 5782 5782 5782 5781 5780 5780 5779 5778 5777 5777 5776 5776 5775 5773 5772 5771 5770 5768 5767 5766